This demonstration page uses our WeatherBlox Daily Observations layout. Learn more.

Left ArrowRight Arrow

41.12389, -100.76542

Hourly Observations for January 29, 2019

Temp ( °F °C ) Dew Point ( °F °C ) Humidity (%) Winds ( mph kmh ) Pressure ( in mb ) Visibility ( mi km ) Precip ( " mm )
12:53 am 00:53 Clear 25 -3.9 11 -11.7 55 55 WNW 17 28 30.20 1023 10 16 0.00 0.00
1:53 am 01:53 Mostly Cloudy 22 -5.6 12 -11.1 66 66 WNW 10 17 30.22 1023 10 16 0.00 0.00
2:53 am 02:53 Cloudy 23 -5 13 -10.6 65 65 NW 8 13 30.22 1023 10 16 0.00 0.00
3:09 am 03:09 Cloudy 24 -4.4 14 -10 65 65 NNW 9 15 30.29 1026 10 16 0.00 0.00
3:34 am 03:34 Cloudy with Light Snow 22 -5.6 15 -9.4 75 75 NNE 8 13 30.30 1026 9 14 0.00 0.03
3:53 am 03:53 Cloudy 21 -6.1 15 -9.4 78 78 N 8 13 30.21 1023 9 14 0.00 0.03
4:53 am 04:53 Mostly Clear 15 -9.4 10 -12.2 80 80 NNW 6 9 30.21 1023 10 16 0.00 0.00
5:06 am 05:06 Mostly Cloudy 17 -8.3 11 -11.7 77 77 WNW 6 9 30.31 1027 10 16 0.00 0.00
5:29 am 05:29 Mostly Clear 16 -8.9 11 -11.7 80 80 W 8 13 30.31 1026 10 16 0.00 0.00
5:53 am 05:53 Mostly Cloudy 17 -8.3 12 -11.1 80 80 WSW 7 11 30.20 1023 10 16 0.00 0.00
6:53 am 06:53 Clear 12 -11.1 8 -13.3 84 84 W 6 9 30.21 1023 10 16 0.00 0.00
7:53 am 07:53 Clear 9 -12.8 6 -14.4 88 88 NNW 5 7 30.21 1023 10 16 0.00 0.00
8:53 am 08:53 Sunny 15 -9.4 10 -12.2 80 80 NNW 5 7 30.21 1023 10 16 0.00 0.00
9:53 am 09:53 Sunny 21 -6.1 13 -10.6 71 71 NE 12 19 30.23 1024 10 16 0.00 0.00
10:53 am 10:53 Mostly Cloudy 20 -6.7 9 -12.8 62 62 NNE 16 26 30.24 1024 10 16 0.00 0.00
11:53 am 11:53 Cloudy 20 -6.7 7 -13.9 57 57 NNE 15 24 30.23 1024 10 16 0.00 0.00
12:53 pm 12:53 Cloudy 21 -6.1 7 -13.9 54 54 N 10 17 30.22 1024 10 16 0.00 0.00
1:53 pm 13:53 Mostly Sunny 24 -4.4 7 -13.9 48 48 N 15 24 30.19 1022 10 16 0.00 0.00
2:53 pm 14:53 Mostly Cloudy 25 -3.9 6 -14.4 44 44 N 14 22 30.16 1021 10 16 0.00 0.00
3:53 pm 15:53 Mostly Sunny 25 -3.9 7 -13.9 46 46 NNE 14 22 30.16 1021 10 16 0.00 0.00
4:53 pm 16:53 Mostly Cloudy 21 -6.1 6 -14.4 52 52 NNE 14 22 30.20 1023 10 16 0.00 0.00
5:53 pm 17:53 Mostly Sunny 16 -8.9 4 -15.6 59 59 NNE 12 19 30.22 1023 10 16 0.00 0.00
6:53 pm 18:53 Clear 12 -11.1 2 -16.7 64 64 NE 6 9 30.27 1025 10 16 0.00 0.00
7:53 pm 19:53 Clear 9 -12.8 1 -17.2 70 70 NNE 5 7 30.31 1026 10 16 0.00 0.00
8:53 pm 20:53 Clear 7 -13.9 -3 -19.4 63 63 N 6 9 30.33 1027 10 16 0.00 0.00
9:53 pm 21:53 Clear 7 -13.9 -6 -21.1 55 55 N 7 11 30.33 1027 10 16 0.00 0.00
10:53 pm 22:53 Clear 5 -15 -6 -21.1 60 60 N 5 7 30.35 1028 10 16 0.00 0.00
11:53 pm 23:53 Clear 3 -16.1 -7 -21.7 62 62 NNW 6 9 30.36 1028 10 16 0.00 0.00

Powered by AerisWeather